Time,TemperatureF,DewpointF,PressureIn,WindDirection,WindDirectionDegrees,WindSpeedMPH,WindSpeedGustMPH,Humidity,HourlyPrecipIn,Conditions,Clouds,dailyrainin,SoftwareType,DateUTC
2013-05-14 00:08:00,48.7,36.7,30.00,WNW,292,0.0,-999.0,63,-99.99,,,0.00,Acu-Link.com,2013-05-14 04:08:00,
2013-05-14 00:23:00,48.0,36.8,30.00,SW,225,1.1,-999.0,65,-99.99,,,0.00,Acu-Link.com,2013-05-14 04:23:00,
2013-05-14 00:38:00,48.9,34.3,30.00,SSE,157,0.0,-999.0,57,-99.99,,,0.00,Acu-Link.com,2013-05-14 04:38:00,
2013-05-14 00:53:00,49.5,34.0,30.01,West,270,0.0,-999.0,55,-99.99,,,0.00,Acu-Link.com,2013-05-14 04:53:00,
2013-05-14 01:08:00,49.5,36.2,30.01,WNW,292,1.1,-999.0,60,-99.99,,,0.00,Acu-Link.com,2013-05-14 05:08:00,
2013-05-14 01:24:00,49.6,33.2,30.01,SSW,202,0.0,-999.0,53,-99.99,,,0.00,Acu-Link.com,2013-05-14 05:24:00,
2013-05-14 01:39:00,49.3,33.8,30.01,West,270,0.0,-999.0,55,-99.99,,,0.00,Acu-Link.com,2013-05-14 05:39:00,
2013-05-14 01:54:00,49.3,35.2,30.01,ENE,67,0.0,-999.0,58,-99.99,,,0.00,Acu-Link.com,2013-05-14 05:54:00,
2013-05-14 02:09:00,48.4,35.2,30.02,WNW,292,1.7,-999.0,60,-99.99,,,0.00,Acu-Link.com,2013-05-14 06:09:00,
2013-05-14 02:24:00,48.4,33.9,30.02,SE,135,0.0,-999.0,57,-99.99,,,0.00,Acu-Link.com,2013-05-14 06:24:00,
2013-05-14 02:39:00,47.3,34.9,30.02,WNW,292,1.1,-999.0,62,-99.99,,,0.00,Acu-Link.com,2013-05-14 06:39:00,
2013-05-14 02:54:00,47.3,33.7,30.02,ESE,112,0.0,-999.0,59,-99.99,,,0.00,Acu-Link.com,2013-05-14 06:54:00,
2013-05-14 03:09:00,46.6,34.7,30.03,NE,45,0.0,-999.0,63,-99.99,,,0.00,Acu-Link.com,2013-05-14 07:09:00,
2013-05-14 03:24:00,45.9,35.2,30.03,NNE,22,0.0,-999.0,66,-99.99,,,0.00,Acu-Link.com,2013-05-14 07:24:00,
2013-05-14 03:40:00,45.0,35.5,30.04,East,90,0.0,-999.0,69,-99.99,,,0.00,Acu-Link.com,2013-05-14 07:40:00,
2013-05-14 03:55:00,44.4,35.6,30.04,WNW,292,0.0,-999.0,71,-99.99,,,0.00,Acu-Link.com,2013-05-14 07:55:00,
2013-05-14 04:11:00,44.1,35.7,30.05,East,90,0.0,-999.0,72,-99.99,,,0.00,Acu-Link.com,2013-05-14 08:11:00,
2013-05-14 04:26:00,43.9,35.8,30.04,ENE,67,0.0,-999.0,73,-99.99,,,0.00,Acu-Link.com,2013-05-14 08:26:00,
2013-05-14 04:41:00,43.5,35.4,30.04,NNW,337,0.0,-999.0,73,-99.99,,,0.00,Acu-Link.com,2013-05-14 08:41:00,
2013-05-14 04:56:00,42.8,35.1,30.05,ESE,112,0.0,-999.0,74,-99.99,,,0.00,Acu-Link.com,2013-05-14 08:56:00,
2013-05-14 05:12:00,42.1,35.4,30.05,NE,45,0.0,-999.0,77,-99.99,,,0.00,Acu-Link.com,2013-05-14 09:12:00,
2013-05-14 05:27:00,41.5,35.2,30.05,West,270,0.0,-999.0,78,-99.99,,,0.00,Acu-Link.com,2013-05-14 09:27:00,
2013-05-14 05:42:00,41.2,34.9,30.05,West,270,0.0,-999.0,78,-99.99,,,0.00,Acu-Link.com,2013-05-14 09:42:00,
2013-05-14 05:57:00,40.8,34.5,30.06,ESE,112,0.0,-999.0,78,-99.99,,,0.00,Acu-Link.com,2013-05-14 09:57:00,
2013-05-14 06:12:00,40.5,34.5,30.06,East,90,0.0,-999.0,79,-99.99,,,0.00,Acu-Link.com,2013-05-14 10:12:00,
2013-05-14 06:27:00,40.5,35.1,30.07,ESE,112,0.0,-999.0,81,-99.99,,,0.00,Acu-Link.com,2013-05-14 10:27:00,
2013-05-14 06:42:00,40.1,34.7,30.07,East,90,0.0,-999.0,81,-99.99,,,0.00,Acu-Link.com,2013-05-14 10:42:00,
2013-05-14 06:57:00,40.3,35.3,30.07,WNW,292,0.0,-999.0,82,-99.99,,,0.00,Acu-Link.com,2013-05-14 10:57:00,
2013-05-14 07:12:00,40.8,35.7,30.08,East,90,0.0,-999.0,82,-99.99,,,0.00,Acu-Link.com,2013-05-14 11:12:00,
2013-05-14 07:27:00,41.2,36.7,30.09,NNW,337,1.1,-999.0,84,-99.99,,,0.00,Acu-Link.com,2013-05-14 11:27:00,
2013-05-14 07:43:00,42.1,37.6,30.08,NW,315,0.0,-999.0,84,-99.99,,,0.00,Acu-Link.com,2013-05-14 11:43:00,
2013-05-14 07:58:00,43.3,38.8,30.09,West,270,0.0,-999.0,84,-99.99,,,0.00,Acu-Link.com,2013-05-14 11:58:00,
2013-05-14 08:13:00,45.1,39.0,30.09,NW,315,0.0,-999.0,79,-99.99,,,0.00,Acu-Link.com,2013-05-14 12:13:00,
2013-05-14 08:28:00,47.1,39.6,30.10,NW,315,0.0,-999.0,75,-99.99,,,0.00,Acu-Link.com,2013-05-14 12:28:00,
2013-05-14 08:43:00,49.3,39.6,30.10,WNW,292,0.0,-999.0,69,-99.99,,,0.00,Acu-Link.com,2013-05-14 12:43:00,
2013-05-14 08:58:00,51.4,36.7,30.10,South,180,1.7,-999.0,57,-99.99,,,0.00,Acu-Link.com,2013-05-14 12:58:00,
2013-05-14 09:13:00,55.0,36.7,30.10,SSE,157,0.0,-999.0,50,-99.99,,,0.00,Acu-Link.com,2013-05-14 13:13:00,
2013-05-14 09:28:00,59.2,37.9,30.09,South,180,0.0,-999.0,45,-99.99,,,0.00,Acu-Link.com,2013-05-14 13:28:00,
2013-05-14 09:43:00,62.6,36.6,30.09,South,180,1.7,-999.0,38,-99.99,,,0.00,Acu-Link.com,2013-05-14 13:43:00,
2013-05-14 09:58:00,63.5,37.4,30.09,SSW,202,1.7,-999.0,38,-99.99,,,0.00,Acu-Link.com,2013-05-14 13:58:00,
2013-05-14 10:14:00,65.1,37.5,30.08,SE,135,2.2,-999.0,36,-99.99,,,0.00,Acu-Link.com,2013-05-14 14:14:00,
2013-05-14 10:29:00,67.3,34.0,30.09,SE,135,1.1,-999.0,29,-99.99,,,0.00,Acu-Link.com,2013-05-14 14:29:00,
2013-05-14 10:44:00,67.8,35.2,30.09,SSE,157,1.1,-999.0,30,-99.99,,,0.00,Acu-Link.com,2013-05-14 14:44:00,
2013-05-14 10:59:00,69.1,32.8,30.09,South,180,2.2,-999.0,26,-99.99,,,0.00,Acu-Link.com,2013-05-14 14:59:00,
2013-05-14 11:14:00,68.9,32.6,30.10,South,180,1.1,-999.0,26,-99.99,,,0.00,Acu-Link.com,2013-05-14 15:14:00,
2013-05-14 11:29:00,71.6,33.9,30.09,WNW,292,2.2,-999.0,25,-99.99,,,0.00,Acu-Link.com,2013-05-14 15:29:00,
2013-05-14 11:44:00,70.7,33.1,30.09,WNW,292,4.2,-999.0,25,-99.99,,,0.00,Acu-Link.com,2013-05-14 15:44:00,
2013-05-14 11:59:00,71.4,33.7,30.09,South,180,1.7,-999.0,25,-99.99,,,0.00,Acu-Link.com,2013-05-14 15:59:00,
2013-05-14 12:14:00,71.8,33.1,30.08,South,180,3.2,-999.0,24,-99.99,,,0.00,Acu-Link.com,2013-05-14 16:14:00,
2013-05-14 12:30:00,73.9,34.8,30.08,SSW,202,1.7,-999.0,24,-99.99,,,0.00,Acu-Link.com,2013-05-14 16:30:00,
2013-05-14 12:45:00,73.4,33.3,30.08,West,270,1.7,-999.0,23,-99.99,,,0.00,Acu-Link.com,2013-05-14 16:45:00,
2013-05-14 13:00:00,72.7,31.7,30.06,SW,225,1.7,-999.0,22,-99.99,,,0.00,Acu-Link.com,2013-05-14 17:00:00,
2013-05-14 13:15:00,73.4,36.4,30.06,East,90,2.2,-999.0,26,-99.99,,,0.00,Acu-Link.com,2013-05-14 17:15:00,
2013-05-14 13:30:00,74.1,35.0,30.06,South,180,1.1,-999.0,24,-99.99,,,0.00,Acu-Link.com,2013-05-14 17:30:00,
2013-05-14 13:45:00,74.5,36.4,30.04,SE,135,2.2,-999.0,25,-99.99,,,0.00,Acu-Link.com,2013-05-14 17:45:00,
2013-05-14 14:00:00,76.3,34.6,30.03,North,0,1.7,-999.0,22,-99.99,,,0.00,Acu-Link.com,2013-05-14 18:00:00,
2013-05-14 14:15:00,76.1,35.6,30.02,West,270,2.2,-999.0,23,-99.99,,,0.00,Acu-Link.com,2013-05-14 18:15:00,
2013-05-14 14:30:00,76.8,32.7,30.02,SW,225,1.7,-999.0,20,-99.99,,,0.00,Acu-Link.com,2013-05-14 18:30:00,
2013-05-14 14:46:00,77.2,29.0,30.01,SSW,202,1.7,-999.0,17,-99.99,,,0.00,Acu-Link.com,2013-05-14 18:46:00,
2013-05-14 15:01:00,77.2,34.2,30.00,South,180,2.2,-999.0,21,-99.99,,,0.00,Acu-Link.com,2013-05-14 19:01:00,
2013-05-14 15:16:00,77.9,31.0,30.00,West,270,1.7,-999.0,18,-99.99,,,0.00,Acu-Link.com,2013-05-14 19:16:00,
2013-05-14 15:31:00,77.5,36.8,29.99,WNW,292,4.2,-999.0,23,-99.99,,,0.00,Acu-Link.com,2013-05-14 19:31:00,
2013-05-14 15:46:00,77.9,38.2,29.98,ESE,112,1.1,-999.0,24,-99.99,,,0.00,Acu-Link.com,2013-05-14 19:46:00,
2013-05-14 16:01:00,77.4,36.7,29.98,West,270,2.2,-999.0,23,-99.99,,,0.00,Acu-Link.com,2013-05-14 20:01:00,
2013-05-14 16:16:00,81.7,32.6,29.97,West,270,0.0,-999.0,17,-99.99,,,0.00,Acu-Link.com,2013-05-14 20:16:00,
2013-05-14 16:31:00,81.3,30.8,29.95,East,90,2.2,-999.0,16,-99.99,,,0.00,Acu-Link.com,2013-05-14 20:31:00,
2013-05-14 16:46:00,80.2,32.8,29.95,WSW,247,1.1,-999.0,18,-99.99,,,0.00,Acu-Link.com,2013-05-14 20:46:00,
2013-05-14 17:02:00,79.0,36.9,29.95,South,180,1.7,-999.0,22,-99.99,,,0.00,Acu-Link.com,2013-05-14 21:02:00,
2013-05-14 17:17:00,78.6,37.7,29.95,SSW,202,2.2,-999.0,23,-99.99,,,0.00,Acu-Link.com,2013-05-14 21:17:00,
2013-05-14 17:32:00,81.7,34.1,29.95,SSW,202,1.1,-999.0,18,-99.99,,,0.00,Acu-Link.com,2013-05-14 21:32:00,
2013-05-14 17:47:00,82.4,34.6,29.95,WSW,247,1.1,-999.0,18,-99.99,,,0.00,Acu-Link.com,2013-05-14 21:47:00,
2013-05-14 18:02:00,79.5,38.4,29.95,SSW,202,1.7,-999.0,23,-99.99,,,0.00,Acu-Link.com,2013-05-14 22:02:00,
2013-05-14 18:17:00,81.1,38.6,29.94,SW,225,0.0,-999.0,22,-99.99,,,0.00,Acu-Link.com,2013-05-14 22:17:00,
2013-05-14 18:32:00,80.2,36.7,29.94,South,180,2.7,-999.0,21,-99.99,,,0.00,Acu-Link.com,2013-05-14 22:32:00,
2013-05-14 18:47:00,80.2,37.9,29.95,West,270,1.1,-999.0,22,-99.99,,,0.00,Acu-Link.com,2013-05-14 22:47:00,
2013-05-14 19:02:00,79.7,38.6,29.95,West,270,1.1,-999.0,23,-99.99,,,0.00,Acu-Link.com,2013-05-14 23:02:00,
2013-05-14 19:18:00,78.6,40.8,29.95,WSW,247,1.1,-999.0,26,-99.99,,,0.00,Acu-Link.com,2013-05-14 23:18:00,
2013-05-14 19:33:00,74.7,42.0,29.94,WSW,247,1.1,-999.0,31,-99.99,,,0.00,Acu-Link.com,2013-05-14 23:33:00,
2013-05-14 19:48:00,72.7,43.5,29.94,SE,135,0.0,-999.0,35,-99.99,,,0.00,Acu-Link.com,2013-05-14 23:48:00,
2013-05-14 20:03:00,71.1,44.2,29.94,SSE,157,0.0,-999.0,38,-99.99,,,0.00,Acu-Link.com,2013-05-15 00:03:00,
2013-05-14 20:18:00,70.0,44.6,29.93,SSE,157,0.0,-999.0,40,-99.99,,,0.00,Acu-Link.com,2013-05-15 00:18:00,
2013-05-14 20:33:00,68.7,44.0,29.92,ESE,112,0.0,-999.0,41,-99.99,,,0.00,Acu-Link.com,2013-05-15 00:33:00,
2013-05-14 20:48:00,67.5,44.2,29.92,ESE,112,0.0,-999.0,43,-99.99,,,0.00,Acu-Link.com,2013-05-15 00:48:00,
2013-05-14 21:03:00,65.8,45.0,29.92,ESE,112,0.0,-999.0,47,-99.99,,,0.00,Acu-Link.com,2013-05-15 01:03:00,
2013-05-14 21:18:00,65.1,45.5,29.91,SSW,202,1.7,-999.0,49,-99.99,,,0.00,Acu-Link.com,2013-05-15 01:18:00,
2013-05-14 21:34:00,64.8,45.7,29.91,West,270,0.0,-999.0,50,-99.99,,,0.00,Acu-Link.com,2013-05-15 01:34:00,
2013-05-14 21:49:00,64.8,45.7,29.91,West,270,0.0,-999.0,50,-99.99,,,0.00,Acu-Link.com,2013-05-15 01:49:00,
2013-05-14 22:04:00,64.6,46.6,29.91,SSE,157,0.0,-999.0,52,-99.99,,,0.00,Acu-Link.com,2013-05-15 02:04:00,
2013-05-14 22:19:00,64.4,46.9,29.91,North,0,0.0,-999.0,53,-99.99,,,0.00,Acu-Link.com,2013-05-15 02:19:00,
2013-05-14 22:34:00,63.7,46.7,29.92,NW,315,0.0,-999.0,54,-99.99,,,0.00,Acu-Link.com,2013-05-15 02:34:00,
2013-05-14 22:49:00,63.1,47.1,29.91,NE,45,0.0,-999.0,56,-99.99,,,0.00,Acu-Link.com,2013-05-15 02:49:00,
2013-05-14 23:04:00,62.6,47.6,29.91,SE,135,0.0,-999.0,58,-99.99,,,0.00,Acu-Link.com,2013-05-15 03:04:00,
2013-05-14 23:19:00,61.9,47.9,29.90,West,270,0.0,-999.0,60,-99.99,,,0.00,Acu-Link.com,2013-05-15 03:19:00,
2013-05-14 23:34:00,61.5,48.4,29.90,NNW,337,0.0,-999.0,62,-99.99,,,0.00,Acu-Link.com,2013-05-15 03:34:00,
2013-05-14 23:49:00,61.0,48.3,29.90,WSW,247,0.0,-999.0,63,-99.99,,,0.00,Acu-Link.com,2013-05-15 03:49:00,